College Station, TX

12:57 AM CDT on March 26, 2017 (GMT -0500)
Easterwood

Weather History for KCLL - April, 2012

Change the Weather History Date:

Wednesday, April 25, 2012

  Actual Average Record
Temperature  
Mean Temperature 75 °F 71 °F  
Max Temperature 89 °F 81 °F 92 °F (1925)
Min Temperature 61 °F 61 °F 37 °F (1910)
Degree Days  
Heating Degree Days 0 1  
Month to date heating degree days 1 45  
Since 1 July heating degree days 1169 1604  
Cooling Degree Days 10 6  
Month to date cooling degree days 172 116  
Year to date cooling degree days 365 203  
Growing Degree Days 24 (Base 50)    
Moisture  
Dew Point 64 °F    
Average Humidity 75    
Maximum Humidity 94    
Minimum Humidity 48    
Precipitation  
Precipitation 0.00 in 0.11 in 2.03 in (1948)
Month to date precipitation 0.57 2.11  
Year to date precipitation 21.31 11.37  
Sea Level Pressure  
Sea Level Pressure 29.90 in    
Wind  
Wind Speed 13 mph (South)    
Max Wind Speed 25 mph    
Max Gust Speed 31 mph    
Visibility 10 miles    
Events      
T = Trace of Precipitation, MM = Missing Value Source: NWS Daily Summary

Daily Weather History Graph

Daily Weather History Graph

Search for Another Location

Airport or City:

Trip Planner

Search our weather history database for the weather conditions in past years. The results will help you decide how hot, cold, wet, or windy it might be!

Date:

Astronomy

Apr. 25, 2012 Rise Set
Actual Time 6:46 AM CDT 8:00 PM CDT
Civil Twilight 6:21 AM CDT 8:25 PM CDT
Nautical Twilight 5:51 AM CDT 8:55 PM CDT
Astronomical Twilight 5:20 AM CDT 9:26 PM CDT
Moon 9:43 AM CDT (4/25) 11:57 PM CDT (4/25)
Length of Visible Light 14h 03m
Length of Day
13h 13m
Waxing Crescent, 17% of the Moon is Illuminated
Apr 25
Waxing Crescent
Apr 29
First Quarter
May 5
Full
May 12
Last Quarter
May 20
New

Hourly Weather History & Observations

Time (CDT) Temp. Heat Index Dew Point Humidity Pressure Visibility Wind Dir Wind Speed Gust Speed Precip Events Conditions
12:53 AM 66.0 °F - 59.0 °F 78% 29.95 in 10.0 mi South 10.4 mph - N/A   Clear
1:53 AM 64.0 °F - 59.0 °F 84% 29.93 in 10.0 mi South 8.1 mph - N/A   Clear
2:53 AM 63.0 °F - 59.0 °F 87% 29.92 in 10.0 mi South 6.9 mph - N/A   Clear
3:53 AM 62.6 °F - 59.0 °F 88% 29.92 in 10.0 mi South 5.8 mph - N/A   Clear
4:53 AM 61.0 °F - 59.0 °F 93% 29.92 in 10.0 mi SSW 5.8 mph - N/A   Mostly Cloudy
5:53 AM 63.0 °F - 60.1 °F 90% 29.91 in 10.0 mi South 10.4 mph - N/A   Overcast
6:01 AM 62.6 °F - 60.8 °F 94% 29.92 in 10.0 mi South 9.2 mph - N/A   Overcast
6:28 AM 62.6 °F - 60.8 °F 94% 29.93 in 10.0 mi South 8.1 mph - N/A   Scattered Clouds
6:53 AM 63.0 °F - 61.0 °F 93% 29.91 in 10.0 mi South 8.1 mph - N/A   Scattered Clouds
7:06 AM 62.6 °F - 60.8 °F 94% 29.93 in 9.0 mi South 5.8 mph - N/A   Mostly Cloudy
7:53 AM 64.9 °F - 63.0 °F 93% 29.92 in 10.0 mi South 8.1 mph - N/A   Overcast
8:19 AM 66.2 °F - 62.6 °F 88% 29.93 in 10.0 mi South 9.2 mph - N/A   Scattered Clouds
8:34 AM 68.0 °F - 64.4 °F 88% 29.95 in 10.0 mi SSW 6.9 mph - N/A   Mostly Cloudy
8:53 AM 69.1 °F - 64.9 °F 87% 29.94 in 10.0 mi SSW 10.4 mph - N/A   Overcast
9:53 AM 72.0 °F - 64.9 °F 78% 29.96 in 10.0 mi SSW 10.4 mph - N/A   Overcast
10:53 AM 73.9 °F - 64.9 °F 73% 29.95 in 10.0 mi South 13.8 mph 20.7 mph N/A   Overcast
11:53 AM 75.9 °F - 66.0 °F 71% 29.93 in 10.0 mi South 16.1 mph 23.0 mph N/A   Overcast
12:53 PM 81.0 °F 83.0 °F 66.0 °F 60% 29.91 in 10.0 mi South 18.4 mph 23.0 mph N/A   Mostly Cloudy
1:02 PM 80.6 °F 82.7 °F 66.2 °F 61% 29.92 in 10.0 mi SSW 13.8 mph - N/A   Scattered Clouds
1:53 PM 84.2 °F 86.6 °F 66.2 °F 55% 29.90 in 10.0 mi South 11.5 mph 20.7 mph N/A   Partly Cloudy
2:53 PM 86.0 °F 88.8 °F 66.9 °F 53% 29.87 in 10.0 mi South 13.8 mph 24.2 mph N/A   Clear
3:53 PM 88.0 °F 90.7 °F 66.9 °F 49% 29.84 in 10.0 mi South 20.7 mph 26.5 mph N/A   Clear
4:53 PM 88.0 °F 90.3 °F 66.0 °F 48% 29.82 in 10.0 mi South 21.9 mph 27.6 mph N/A   Clear
5:53 PM 87.1 °F 88.9 °F 64.9 °F 48% 29.81 in 10.0 mi South 18.4 mph 27.6 mph N/A   Clear
6:53 PM 84.0 °F 86.3 °F 66.0 °F 55% 29.81 in 10.0 mi South 18.4 mph 26.5 mph N/A   Clear
7:53 PM 80.1 °F 81.7 °F 64.0 °F 58% 29.83 in 10.0 mi South 15.0 mph 21.9 mph N/A   Clear
8:53 PM 77.0 °F - 64.0 °F 64% 29.83 in 10.0 mi South 16.1 mph 23.0 mph N/A   Clear
9:53 PM 75.0 °F - 66.0 °F 73% 29.84 in 10.0 mi South 12.7 mph 24.2 mph N/A   Clear
10:53 PM 73.0 °F - 66.0 °F 79% 29.86 in 10.0 mi South 16.1 mph 21.9 mph N/A   Clear
11:53 PM 72.0 °F - 66.9 °F 84% 29.85 in 10.0 mi South 16.1 mph - N/A   Clear